Regional Weather Roundup
Issued by NWS

Home | Current Version | Previous Version | Text Only | Print | Product List | Glossary On
Versions: 1 2 3 4 5 6 7 8 9 10 11 12 13 14 15 16 17 18 19 20 21 22 23 24 25 26 27 28 29 30 31 32 33 34 35 36 37 38 39 40 41 42 43 44 45 46 47 48 49 50
000
ASUS43 KTOP 231408
RWRKS

WEATHER ROUNDUP FOR KANSAS
NATIONAL WEATHER SERVICE GOODLAND KS
900 AM CDT SAT AUG 23 2014

NOTE:  "FAIR" INDICATES FEW OR NO CLOUDS BELOW 12,000 FEET WITH NO
SIGNIFICANT WEATHER AND/OR OBSTRUCTIONS TO VISIBILITY.

KSZ001>006-013>018-027>032-041>047-231500-
NORTHWEST KANSAS

CITY           SKY/WX    TMP DP  RH WIND       PRES   REMARKS
GOODLAND       MOSUNNY   66  64  93 SE3       29.90S
HAYS           SUNNY     73  63  68 SW9       29.88R
HILL CITY      SUNNY     71  68  90 SE5       29.86S
RUSSELL        SUNNY     76  62  62 S9        29.86S
$$

KSZ061>065-074>080-084>089-231500-
SOUTHWEST KANSAS

CITY           SKY/WX    TMP DP  RH WIND       PRES   REMARKS
DODGE CITY     SUNNY     74  61  63 S13       29.91S
ELKHART          N/A     70  57  63 SW8         N/A
GARDEN CITY    SUNNY     71  63  75 S15       29.90S
GREAT BEND     SUNNY     75  61  60 S16       29.88S
LIBERAL        MOSUNNY   73  63  68 S14       29.94S
PRATT          SUNNY     77  55  47 S10       29.91S
$$

KSZ066>073-081>083-090>101-231500-
SOUTHEAST KANSAS

CITY           SKY/WX    TMP DP  RH WIND       PRES   REMARKS
CHANUTE        SUNNY     82  68  62 S15       29.96R
COFFEYVILLE    SUNNY     81  70  69 S12       29.95R
HUTCHINSON     SUNNY     78  58  49 S9        29.90R
MEDICINE LODGE   N/A     77  55  46 S5        29.90F
NEWTON         SUNNY     79  55  44 S15       29.95R
PARSONS        SUNNY     81  69  67 S9        29.97R
WICHITA INTL   SUNNY     80  59  48 S12       29.91R
WICHITA JABRA  SUNNY     79  60  52 S12       29.91R
WICHITA MCCONL SUNNY     78  60  53 S14       29.92R
WINFIELD       SUNNY     80  62  54 S10       29.94S
$$

KSZ007>012-019>026-033>040-048>060-102>105-231500-
NORTHEAST KANSAS

CITY           SKY/WX    TMP DP  RH WIND       PRES   REMARKS
CONCORDIA      SUNNY     77  68  73 S7        29.88R
EMPORIA        SUNNY     78  65  63 S16       29.91R
LAWRENCE       SUNNY     83  68  60 CALM      29.92S
MANHATTAN      SUNNY     81  64  56 SE3       29.89R
MARYSVILLE     PTSUNNY   73  72  94 SE14      29.90R
OLATHE IND     SUNNY     80  70  71 S8        29.93S
OLATHE EXE     SUNNY     78  70  76 S8        29.93S
SALINA         SUNNY     80  60  50 S12       29.87R
TOPEKA BILLARD SUNNY     81  68  64 S7        29.91S
TOPEKA FORBES  SUNNY     79  66  64 VRB3      29.91F
$$



USA.gov is the U.S. government's official web portal to all federal, state and local government web resources and services.